Wind_Speed
29 29 28 27 27 27 26 24 22 21 20 20 20 19 18 18 18 17 17 17 16 15 14 15 15 15 15 15 14 14 13 14 14 13 14 14 14 14 14 14 15 16 16 17
30 29 28 28 28 27 25 24 22 21 20 20 20 19 19 18 18 17 17 16 15 15 15 14 14 13 13 13 13 13 14 13 13 14 14 14 14 14 14 15 16 16 17 17
29 29 29 29 27 26 25 24 22 21 19 19 19 19 18 18 18 18 17 16 16 16 15 14 13 13 12 13 14 14 14 15 15 15 15 15 14 14 14 15 16 17 18 19
27 29 29 27 26 26 25 24 22 21 20 19 19 19 19 19 19 19 18 17 17 15 15 14 14 13 13 13 14 15 15 15 16 16 16 16 16 15 15 16 17 18 18 19
27 27 28 27 26 25 24 24 22 21 21 20 20 19 19 19 20 19 19 18 17 16 16 15 15 14 13 13 14 15 15 16 16 17 16 16 16 16 16 16 16 17 18 19
27 26 27 26 25 25 24 24 22 22 21 20 20 19 19 19 21 20 19 19 18 17 17 16 16 16 15 15 14 15 16 16 16 16 16 16 16 17 17 17 17 17 18 19
26 26 27 26 25 25 25 24 22 22 22 21 21 20 20 20 20 20 19 19 18 17 16 16 16 15 16 16 16 16 16 16 17 17 17 16 17 17 17 17 18 17 18 19
27 26 27 25 26 27 26 24 23 23 22 21 21 21 21 21 21 21 20 19 19 18 18 18 17 17 17 17 16 17 16 16 17 17 17 17 18 18 18 18 18 19 19 20
28 27 26 25 26 26 25 25 24 24 23 22 22 22 22 22 22 22 21 21 21 20 19 19 19 18 18 18 17 17 18 18 19 19 18 18 19 18 18 18 19 20 20 21
28 27 26 25 25 26 26 26 25 25 24 23 23 22 22 22 23 23 22 22 22 21 20 20 19 19 19 18 18 19 20 20 20 20 19 19 19 19 19 20 20 21 21 22
27 27 27 26 26 26 26 27 27 26 26 25 24 23 23 23 24 24 24 23 22 21 20 20 20 20 19 19 19 20 20 21 20 20 21 20 20 20 20 21 22 22 22 22
27 26 26 26 26 26 26 27 27 27 27 26 25 25 25 25 24 24 24 23 23 23 22 21 21 20 19 19 19 20 20 20 20 20 21 21 21 21 22 22 22 22 22 23
27 27 26 26 26 26 27 26 26 26 27 27 27 27 26 25 24 23 23 22 22 22 21 20 20 20 20 20 20 20 20 20 20 21 21 22 22 22 22 23 22 22 22 22
28 28 27 27 26 26 26 26 26 26 26 26 26 26 25 24 23 22 22 22 21 20 20 19 19 19 20 20 20 20 20 20 21 21 22 22 23 23 23 23 23 23 23 23
29 28 27 28 27 27 27 26 26 26 26 25 25 25 24 24 24 23 22 20 20 19 19 19 19 19 20 20 20 20 20 21 21 21 22 22 23 23 23 23 23 23 23 23
28 28 27 28 27 27 27 27 26 25 25 25 24 23 23 23 23 22 21 20 20 19 19 19 19 19 19 19 19 19 19 20 20 20 21 21 21 22 23 23 23 23 23 24
27 28 28 28 27 27 27 26 26 25 25 24 24 23 23 23 22 21 20 20 19 19 19 18 18 18 19 19 19 19 19 20 20 21 21 21 22 22 22 22 23 23 24 24
27 27 28 28 27 26 25 25 25 25 24 24 22 22 21 20 20 20 20 20 19 18 18 18 18 18 18 18 18 18 19 19 20 20 21 21 22 23 23 23 23 23 23 23
27 27 27 28 27 25 24 24 24 24 24 23 22 22 21 20 20 20 20 19 18 18 18 18 17 17 17 17 18 18 19 19 20 21 21 21 22 23 22 22 22 22 23 23
26 26 26 27 27 26 26 25 24 23 23 23 22 21 21 21 20 20 19 19 18 19 18 18 17 17 17 18 18 18 19 20 20 21 21 21 22 22 22 22 22 22 23 23
26 25 25 26 27 27 26 26 24 23 23 23 22 21 21 20 20 20 19 19 19 18 18 17 17 17 17 18 18 19 19 20 20 21 21 22 22 22 22 22 22 22 23 23
27 26 25 26 26 27 27 26 25 24 23 23 22 21 20 19 19 19 19 19 18 18 18 18 17 17 17 18 18 19 19 20 20 20 21 21 21 22 22 23 22 22 23 23
27 27 26 26 26 27 26 25 25 24 23 22 21 20 19 19 19 19 18 18 18 18 18 17 17 17 18 19 19 20 20 20 21 21 21 21 21 22 22 23 23 22 23 23
26 26 26 26 26 25 25 24 24 24 23 22 21 21 20 19 19 19 18 18 17 17 17 17 17 18 19 20 20 20 20 21 21 21 21 22 22 23 23 22 22 22 23 24
25 25 26 25 25 24 23 23 22 22 22 21 21 20 19 19 19 18 18 18 18 18 17 17 18 19 19 19 20 20 20 20 21 21 21 21 21 22 22 22 22 23 24 24
25 25 24 24 23 23 22 22 22 21 21 21 21 20 19 18 18 17 18 17 17 17 18 18 18 19 19 19 19 20 20 21 21 21 21 20 20 21 22 22 22 23 23 24
23 23 22 21 21 21 21 22 21 21 21 20 20 19 18 18 17 18 18 17 17 18 18 18 19 19 19 19 20 21 21 20 20 20 20 20 22 22 22 22 22 23 23 24
Wind_Direction
217 223 224 225 226 227 229 230 233 235 235 238 238 239 240 241 242 242 245 250 253 251 254 258 262 265 265 263 260 261 264 266 267 269 273 275 276 275 275 274 277 274 272 273
217 221 222 223 225 227 227 228 230 232 233 234 234 235 236 236 238 241 245 248 250 251 255 260 262 261 259 258 259 260 264 266 268 270 274 278 277 277 276 276 276 276 274 275
217 221 223 225 225 227 228 228 229 230 231 232 230 228 229 230 233 238 243 246 249 250 253 259 260 256 259 260 261 262 265 267 272 273 275 279 279 279 276 276 275 276 276 275
217 220 223 225 225 225 227 226 227 229 230 229 227 227 227 229 232 236 240 243 245 248 252 257 261 261 261 261 259 261 265 269 274 276 278 281 278 279 278 277 276 277 277 276
217 222 225 226 224 224 226 226 226 227 227 227 225 226 226 227 230 233 236 239 243 247 249 253 258 260 261 263 262 264 268 272 274 275 276 280 279 278 279 281 281 281 280 278
217 220 225 226 223 223 225 226 224 226 227 226 225 226 227 228 229 233 236 238 241 244 246 252 260 260 257 261 265 268 271 272 273 274 278 280 280 281 279 280 283 285 285 282
218 220 225 224 221 221 223 224 224 225 225 225 225 227 229 229 231 232 234 238 241 242 246 252 257 259 259 261 265 268 272 274 275 276 276 279 282 285 283 282 284 286 288 288
217 220 224 220 219 220 222 222 222 223 225 226 227 228 230 231 232 233 235 238 241 245 249 254 257 259 261 263 263 266 270 274 275 276 277 279 282 285 285 286 286 287 288 289
218 220 221 219 219 221 222 223 223 224 225 228 228 230 233 233 233 234 237 240 243 247 251 254 257 257 260 260 262 265 269 273 275 277 278 280 283 285 286 287 289 289 290 292
219 219 220 219 219 220 221 222 223 224 225 227 227 230 232 232 233 236 240 242 245 247 251 253 255 255 258 262 263 265 270 274 275 278 279 281 283 285 287 288 288 290 291 291
218 218 218 219 221 221 222 222 223 224 224 225 226 229 231 232 235 237 241 245 245 248 250 251 253 257 260 262 264 266 270 273 275 277 279 279 281 284 286 287 289 290 291 291
215 216 217 219 220 221 221 222 224 224 224 225 228 229 231 232 235 237 241 245 248 250 252 251 252 256 258 261 264 268 271 273 275 276 278 279 282 285 287 288 289 290 292 292
213 214 216 217 220 222 222 222 222 223 224 226 229 231 233 233 233 236 239 243 247 249 250 248 250 254 257 261 266 270 272 274 275 277 278 279 283 284 285 287 288 289 291 292
213 214 217 218 220 221 220 219 221 221 223 225 226 229 231 232 234 234 237 241 246 248 250 249 251 256 259 264 268 270 272 275 277 279 279 280 282 284 285 287 288 289 290 291
214 216 218 218 219 218 218 219 220 221 223 224 224 226 230 234 235 236 237 240 244 248 250 251 254 258 262 266 269 270 273 276 278 279 280 282 284 285 286 287 288 290 291 292
216 217 219 219 218 216 218 219 220 220 221 223 224 226 230 232 234 234 237 240 243 247 250 253 257 260 263 266 268 271 274 276 279 282 284 285 285 286 288 289 289 291 293 292
215 216 217 217 217 218 219 219 219 220 220 221 222 227 231 233 233 234 237 239 243 247 249 254 260 263 264 266 267 271 274 277 280 283 284 285 287 289 290 291 292 291 291 291
214 215 214 214 216 216 216 217 217 218 219 221 226 228 228 230 230 231 235 239 241 245 251 256 261 264 265 266 269 272 275 278 280 283 284 287 289 290 291 291 291 291 290 291
210 210 210 211 213 214 215 215 215 216 218 221 223 224 224 225 228 231 234 239 243 248 253 257 262 264 265 268 271 274 278 280 282 285 288 290 291 290 290 291 293 294 294 295
207 207 209 211 213 214 214 214 215 216 218 220 222 222 224 227 229 232 236 240 245 251 256 257 260 266 269 272 275 278 281 283 285 287 289 291 291 291 291 293 295 294 295 297
208 210 211 210 210 211 212 213 214 216 217 218 218 220 224 227 230 234 237 242 247 251 254 257 261 266 271 275 278 281 284 287 289 290 291 292 292 292 292 293 294 295 297 298
209 209 209 208 208 209 210 212 214 216 218 219 220 223 226 230 234 236 239 244 248 252 255 258 263 267 271 275 279 283 285 287 288 289 290 291 291 292 293 294 295 296 297 299
207 207 207 207 206 207 210 213 216 217 217 219 221 224 227 230 232 235 241 246 248 251 255 259 263 266 270 276 280 284 285 286 287 289 289 290 291 291 293 295 296 297 298 301
204 204 205 205 206 209 211 213 214 215 216 219 222 224 227 231 234 237 241 245 248 252 256 260 263 268 274 277 280 283 284 285 287 289 289 289 290 292 293 295 296 298 300 303
200 200 201 204 206 208 211 212 214 217 218 219 222 226 230 234 237 239 242 246 248 252 257 262 265 270 274 277 280 282 282 284 286 288 290 291 292 294 294 295 296 299 301 303
196 197 200 204 206 210 213 213 215 217 218 219 222 225 230 234 238 241 245 247 250 256 261 265 268 271 274 278 280 282 284 285 287 288 289 290 292 294 296 297 299 301 302 302
194 196 200 204 206 207 209 210 212 214 217 220 223 226 230 235 240 246 249 251 256 261 265 268 268 271 274 276 279 282 284 285 286 288 289 290 293 295 297 298 299 300 301 302
Height
5819 5823 5828 5832 5837 5841 5845 5850 5854 5857 5860 5861 5863 5865 5867 5869 5870 5872 5873 5874 5875 5876 5876 5876 5876 5875 5875 5875 5875 5875 5875 5875 5874 5874 5874 5873 5872 5872 5872 5871 5871 5870 5871 5871
5814 5818 5822 5827 5831 5835 5840 5844 5848 5851 5854 5856 5858 5860 5862 5864 5866 5868 5869 5870 5871 5872 5872 5872 5872 5871 5871 5872 5872 5872 5872 5872 5872 5871 5871 5870 5869 5868 5868 5867 5867 5867 5867 5866
5809 5813 5817 5822 5826 5830 5835 5838 5843 5846 5849 5851 5853 5855 5858 5860 5862 5864 5865 5866 5867 5868 5869 5869 5868 5868 5868 5868 5868 5869 5869 5869 5868 5868 5868 5867 5866 5865 5864 5864 5863 5863 5863 5862
5805 5809 5813 5819 5821 5825 5829 5833 5837 5840 5843 5846 5848 5851 5853 5855 5857 5859 5861 5862 5863 5864 5865 5865 5865 5865 5865 5865 5865 5865 5865 5865 5865 5864 5864 5863 5862 5862 5861 5860 5859 5859 5858 5857
5800 5804 5808 5813 5817 5820 5824 5828 5832 5835 5838 5841 5844 5846 5849 5851 5853 5855 5857 5858 5859 5860 5861 5862 5862 5862 5862 5862 5862 5862 5862 5861 5861 5860 5860 5859 5858 5858 5857 5857 5856 5855 5853 5853
5794 5799 5803 5808 5812 5815 5820 5823 5827 5830 5833 5836 5839 5843 5845 5846 5848 5850 5852 5854 5855 5856 5857 5857 5858 5858 5858 5858 5858 5858 5858 5858 5857 5856 5856 5855 5855 5854 5853 5852 5852 5850 5849 5848
5789 5794 5798 5802 5806 5811 5816 5820 5822 5825 5828 5831 5834 5838 5840 5842 5844 5846 5848 5850 5851 5853 5854 5854 5855 5854 5854 5855 5855 5855 5854 5854 5854 5853 5852 5852 5851 5850 5849 5848 5847 5846 5844 5843
5783 5788 5794 5797 5801 5805 5809 5813 5816 5820 5823 5826 5829 5832 5835 5837 5839 5842 5843 5845 5847 5848 5849 5850 5850 5850 5851 5851 5851 5850 5850 5850 5850 5849 5849 5848 5847 5846 5845 5844 5842 5841 5840 5839
5779 5784 5787 5791 5795 5800 5804 5808 5811 5815 5818 5821 5824 5827 5829 5832 5834 5837 5839 5840 5842 5843 5844 5845 5845 5846 5847 5846 5846 5846 5846 5846 5846 5845 5844 5844 5843 5842 5840 5839 5838 5837 5835 5834
5773 5777 5782 5786 5790 5794 5798 5802 5806 5809 5813 5816 5819 5821 5824 5826 5829 5831 5833 5835 5837 5838 5839 5840 5840 5841 5841 5842 5842 5842 5842 5842 5841 5841 5840 5839 5838 5837 5836 5834 5833 5831 5830 5828
5767 5772 5776 5780 5784 5789 5792 5796 5800 5803 5807 5810 5813 5816 5818 5821 5823 5826 5828 5830 5831 5832 5833 5834 5835 5836 5836 5837 5837 5837 5837 5836 5836 5835 5835 5834 5833 5832 5831 5829 5828 5826 5824 5822
5762 5766 5771 5775 5779 5783 5786 5790 5794 5797 5801 5804 5807 5810 5812 5815 5817 5820 5822 5824 5825 5826 5827 5828 5829 5830 5831 5831 5832 5832 5831 5831 5830 5830 5829 5828 5827 5826 5824 5823 5822 5820 5818 5817
5756 5761 5765 5770 5773 5777 5780 5784 5788 5791 5794 5798 5801 5804 5807 5809 5812 5814 5817 5818 5820 5821 5822 5823 5824 5825 5826 5826 5826 5826 5826 5825 5825 5824 5823 5822 5821 5820 5819 5817 5815 5814 5812 5810
5751 5756 5760 5764 5768 5771 5775 5778 5782 5785 5788 5792 5795 5798 5801 5804 5806 5808 5811 5813 5814 5815 5816 5818 5819 5820 5820 5821 5821 5820 5820 5819 5819 5818 5817 5816 5815 5814 5812 5811 5809 5807 5805 5804
5746 5750 5755 5758 5762 5766 5770 5773 5777 5780 5783 5786 5790 5793 5796 5798 5801 5803 5805 5807 5809 5810 5812 5813 5814 5814 5815 5815 5815 5815 5814 5814 5813 5812 5811 5810 5809 5807 5806 5804 5803 5801 5799 5797
5740 5745 5749 5753 5757 5760 5764 5768 5771 5775 5778 5781 5785 5788 5791 5793 5795 5798 5800 5802 5804 5805 5806 5807 5808 5809 5809 5809 5809 5809 5808 5808 5807 5806 5805 5804 5803 5801 5800 5798 5796 5795 5793 5791
5735 5739 5743 5747 5751 5755 5759 5762 5766 5770 5773 5777 5780 5783 5785 5788 5790 5793 5795 5797 5799 5800 5802 5802 5803 5803 5803 5803 5803 5803 5803 5802 5801 5801 5799 5798 5797 5795 5794 5792 5790 5788 5787 5785
5729 5734 5738 5742 5746 5750 5754 5758 5761 5765 5769 5772 5775 5778 5780 5783 5785 5788 5790 5792 5794 5795 5796 5797 5797 5798 5798 5798 5798 5798 5797 5796 5795 5794 5793 5792 5791 5790 5788 5786 5784 5782 5780 5778
5724 5729 5733 5737 5741 5745 5749 5753 5757 5760 5764 5767 5770 5773 5775 5778 5780 5783 5785 5787 5789 5790 5791 5792 5792 5793 5793 5792 5792 5792 5791 5791 5790 5789 5788 5786 5785 5783 5782 5780 5778 5776 5774 5772
5719 5724 5728 5732 5736 5740 5745 5749 5752 5756 5759 5762 5766 5768 5771 5774 5776 5778 5781 5782 5784 5785 5786 5787 5788 5788 5787 5787 5787 5786 5786 5785 5784 5783 5782 5781 5779 5777 5776 5774 5772 5770 5768 5766
5715 5719 5723 5727 5731 5736 5740 5744 5748 5752 5755 5758 5761 5764 5766 5769 5771 5773 5775 5777 5779 5780 5781 5782 5782 5782 5782 5782 5782 5781 5780 5779 5778 5777 5776 5775 5773 5771 5769 5768 5766 5764 5762 5759
5710 5714 5718 5722 5727 5731 5735 5740 5744 5747 5751 5754 5757 5759 5762 5764 5766 5769 5770 5772 5773 5774 5775 5776 5777 5777 5777 5777 5776 5776 5775 5774 5773 5771 5770 5769 5767 5765 5764 5762 5760 5757 5755 5753
5706 5710 5714 5718 5722 5727 5731 5735 5739 5743 5746 5749 5752 5755 5758 5760 5762 5764 5765 5767 5768 5769 5770 5771 5771 5772 5772 5771 5771 5770 5769 5768 5767 5765 5764 5763 5761 5759 5757 5755 5753 5751 5749 5747
5701 5706 5710 5715 5719 5723 5727 5731 5735 5738 5742 5745 5748 5751 5753 5755 5757 5759 5760 5761 5763 5764 5765 5766 5766 5766 5766 5765 5765 5764 5763 5762 5761 5759 5758 5757 5755 5753 5751 5749 5747 5745 5743 5740
5698 5702 5707 5711 5716 5720 5723 5727 5730 5733 5737 5740 5743 5746 5748 5750 5752 5754 5755 5756 5758 5759 5760 5760 5760 5760 5760 5760 5759 5758 5757 5756 5755 5753 5752 5750 5749 5747 5745 5743 5741 5739 5736 5733
5695 5699 5703 5708 5712 5716 5719 5723 5726 5729 5733 5736 5739 5741 5744 5746 5748 5749 5750 5751 5752 5753 5754 5754 5754 5754 5754 5754 5753 5752 5751 5750 5749 5747 5746 5744 5742 5741 5738 5736 5734 5732 5729 5726
5693 5697 5701 5704 5708 5712 5715 5719 5722 5726 5729 5732 5735 5737 5739 5741 5743 5744 5745 5747 5747 5748 5748 5749 5748 5748 5748 5748 5747 5746 5745 5744 5742 5741 5740 5738 5736 5734 5732 5729 5727 5725 5722 5719